| time (UTC) | temp F | wind direction | speed knots | gust knots | rain 1hr in | rain 24hr in | rain mn in | humidity % | barometer mb |
| 20260503004700 | 67 | 70 | 0.0 | 0.0 | 0.00 | 0.07 | 0.00 | ||
| 20260503004201 | 68 | 70 | 0.0 | 0.0 | 0.00 | 0.07 | 0.00 | ||
| 20260503003658 | 68 | 70 | 0.0 | 0.0 | 0.00 | 0.07 | 0.00 | ||
| 20260503003159 | 68 | 70 | 0.0 | 0.0 | 0.00 | 0.07 | 0.00 | ||
| 20260503002659 | 54 | 345 | 11.3 | 10.4 | 0.00 | 0.02 | 0.03 | ||
| 20260503002657 | 54 | 353 | 12.2 | 9.6 | 0.00 | 0.02 | 0.01 | ||
| 20260503002654 | 54 | 35 | 8.7 | 9.6 | 0.00 | 0.02 | 0.01 | ||
| 20260503002652 | 55 | 41 | 8.7 | 9.6 | 0.00 | 0.00 | 0.02 | ||
| 20260503002157 | 68 | 70 | 0.0 | 0.0 | 0.00 | 0.07 | 0.00 | ||
| 20260503001657 | 68 | 70 | 1.7 | 0.9 | 0.00 | 0.07 | 0.00 | ||
| 20260503001158 | 69 | 94 | 0.0 | 0.0 | 0.00 | 0.07 | 0.00 | ||
| 20260503000655 | 69 | 94 | 0.0 | 0.0 | 0.00 | 0.07 | 0.00 | ||
| 20260503000156 | 69 | 94 | 0.0 | 0.0 | 0.00 | 0.07 | 0.00 | ||
| 20260502235656 | 70 | 94 | 0.0 | 0.0 | 0.00 | 0.07 | 0.00 | ||
| 20260502235154 | 69 | 94 | 0.9 | 0.0 | 0.00 | 0.07 | 0.00 | ||
| 20260502234654 | 70 | 62 | 0.0 | 0.0 | 0.00 | 0.07 | 0.00 | ||
| 20260502234154 | 69 | 62 | 0.0 | 0.0 | 0.00 | 0.07 | 0.00 | ||
| 20260502233652 | 70 | 45 | 0.9 | 0.9 | 0.00 | 0.07 | 0.00 | ||
| 20260502233152 | 70 | 44 | 0.0 | 0.0 | 0.00 | 0.07 | 0.00 | ||
| 20260502232653 | 70 | 44 | 0.0 | 0.0 | 0.00 | 0.07 | 0.00 | ||
| 20260502232150 | 71 | 44 | 0.0 | 0.0 | 0.00 | 0.07 | 0.00 | ||
| 20260502231650 | 71 | 66 | 2.6 | 3.5 | 0.00 | 0.07 | 0.00 | ||
| 20260502231151 | 72 | 11 | 0.0 | 0.0 | 0.00 | 0.07 | 0.00 | ||
| 20260502230648 | 71 | 3 | 1.7 | 0.0 | 0.00 | 0.07 | 0.00 | ||
| 20260502230149 | 71 | 38 | 0.0 | 0.0 | 0.00 | 0.07 | 0.00 | ||
| 20260502225649 | 70 | 38 | 1.7 | 0.0 | 0.00 | 0.07 | 0.00 | ||
| 20260502225147 | 71 | 65 | 4.3 | 5.2 | 0.00 | 0.07 | 0.00 | ||
| 20260502224648 | 72 | 7 | 3.5 | 4.3 | 0.00 | 0.07 | 0.00 | ||
| 20260502224148 | 71 | 84 | 2.6 | 1.7 | 0.00 | 0.07 | 0.00 | ||
| 20260502223645 | 71 | 59 | 4.3 | 6.1 | 0.00 | 0.07 | 0.00 | ||
| 20260502223146 | 71 | 48 | 2.6 | 2.6 | 0.00 | 0.07 | 0.00 | ||
| 20260502222646 | 70 | 97 | 4.3 | 5.2 | 0.00 | 0.07 | 0.00 | ||
| 20260502222143 | 70 | 98 | 5.2 | 6.1 | 0.00 | 0.07 | 0.00 | ||
| 20260502221644 | 70 | 75 | 4.3 | 5.2 | 0.00 | 0.07 | 0.00 | ||
| 20260502221144 | 71 | 75 | 0.9 | 3.5 | 0.00 | 0.07 | 0.00 | ||
| 20260502220642 | 72 | 49 | 4.3 | 4.3 | 0.00 | 0.07 | 0.00 | ||
| 20260502220142 | 73 | 51 | 2.6 | 3.5 | 0.00 | 0.07 | 0.00 | ||
| 20260502215643 | 75 | 211 | 1.7 | 3.5 | 0.00 | 0.07 | 0.00 | ||
| 20260502215140 | 74 | 208 | 0.0 | 0.0 | 0.00 | 0.07 | 0.00 | ||
| 20260502214641 | 73 | 163 | 4.3 | 5.2 | 0.00 | 0.07 | 0.00 | ||
| 20260502214141 | 72 | 131 | 7.0 | 5.2 | 0.00 | 0.07 | 0.00 | ||
| 20260502213639 | 72 | 65 | 3.5 | 5.2 | 0.00 | 0.07 | 0.00 | ||
| 20260502213139 | 71 | 68 | 2.6 | 7.0 | 0.00 | 0.07 | 0.00 | ||
| 20260502212639 | 71 | 4 | 2.6 | 2.6 | 0.00 | 0.07 | 0.00 | ||
| 20260502212137 | 75 | 13 | 6.1 | 7.8 | 0.00 | 0.07 | 0.00 | ||
| 20260502211637 | 73 | 316 | 3.5 | 5.2 | 0.00 | 0.07 | 0.00 | ||
| 20260502211138 | 73 | 120 | 0.9 | 3.5 | 0.00 | 0.07 | 0.00 | ||
| 20260502210635 | 72 | 77 | 7.0 | 4.3 | 0.00 | 0.07 | 0.00 | ||
| 20260502210136 | 72 | 13 | 7.0 | 7.8 | 0.00 | 0.07 | 0.00 | ||
| 20260502205637 | 72 | 17 | 4.3 | 4.3 | 0.00 | 0.07 | 0.00 | ||
| 20260502205134 | 71 | 15 | 1.7 | 3.5 | 0.00 | 0.07 | 0.00 | ||
| 20260502204635 | 70 | 62 | 2.6 | 1.7 | 0.00 | 0.07 | 0.00 | ||
| 20260502204135 | 70 | 58 | 4.3 | 1.7 | 0.00 | 0.07 | 0.00 | ||
| 20260502203633 | 71 | 66 | 1.7 | 3.5 | 0.00 | 0.07 | 0.00 | ||
| 20260502203133 | 71 | 79 | 3.5 | 0.9 | 0.00 | 0.07 | 0.00 | ||
| 20260502202634 | 73 | 89 | 3.5 | 5.2 | 0.00 | 0.07 | 0.00 | ||
| 20260502202131 | 74 | 58 | 0.0 | 4.3 | 0.00 | 0.07 | 0.00 | ||
| 20260502201632 | 72 | 301 | 3.5 | 0.0 | 0.00 | 0.07 | 0.00 | ||
| 20260502201132 | 74 | 343 | 0.0 | 1.7 | 0.00 | 0.07 | 0.00 | ||
| 20260502200630 | 71 | 328 | 2.6 | 4.3 | 0.00 | 0.07 | 0.00 | ||
| 20260502200130 | 69 | 309 | 4.3 | 5.2 | 0.00 | 0.07 | 0.00 | ||
| 20260502195630 | 71 | 6 | 2.6 | 6.1 | 0.00 | 0.07 | 0.00 | ||
| 20260502195128 | 70 | 34 | 4.3 | 3.5 | 0.00 | 0.07 | 0.00 | ||
| 20260502194628 | 72 | 13 | 6.1 | 7.0 | 0.00 | 0.07 | 0.00 | ||
| 20260502194129 | 74 | 236 | 3.5 | 4.3 | 0.00 | 0.07 | 0.00 | ||
| 20260502193626 | 72 | 20 | 3.5 | 1.7 | 0.00 | 0.07 | 0.00 | ||
| 20260502193127 | 71 | 170 | 1.7 | 0.0 | 0.00 | 0.07 | 0.00 | ||
| 20260502192627 | 72 | 24 | 5.2 | 5.2 | 0.00 | 0.07 | 0.00 | ||
| 20260502192125 | 73 | 15 | 3.5 | 7.8 | 0.00 | 0.07 | 0.00 | ||
| 20260502191725 | 77 | 342 | 0.0 | 7.0 | 0.00 | 0.07 | 0.00 | ||
| 20260502191625 | 77 | 342 | 0.0 | 7.0 | 0.00 | 0.07 | 0.00 | ||
| 20260502191126 | 76 | 255 | 0.9 | 2.6 | 0.00 | 0.07 | 0.00 | ||
| 20260502190623 | 74 | 281 | 2.6 | 1.7 | 0.00 | 0.07 | 0.00 | ||
| 20260502190124 | 72 | 280 | 4.3 | 0.9 | 0.00 | 0.07 | 0.00 | ||
| 20260502185624 | 71 | 51 | 6.1 | 1.7 | 0.00 | 0.07 | 0.00 | ||
| 20260502185122 | 74 | 197 | 0.9 | 0.0 | 0.00 | 0.07 | 0.00 | ||
| 20260502184622 | 73 | 266 | 1.7 | 0.0 | 0.00 | 0.07 | 0.00 | ||
| 20260502184122 | 72 | 359 | 3.5 | 2.6 | 0.00 | 0.07 | 0.00 | ||
| 20260502183620 | 69 | 304 | 4.3 | 3.5 | 0.00 | 0.07 | 0.00 | ||
| 20260502183121 | 68 | 338 | 6.1 | 6.1 | 0.00 | 0.07 | 0.00 | ||
| 20260502182621 | 69 | 329 | 7.0 | 6.1 | 0.00 | 0.07 | 0.00 | ||
| 20260502182119 | 70 | 359 | 3.5 | 2.6 | 0.00 | 0.07 | 0.00 | ||
| 20260502181619 | 69 | 333 | 2.6 | 0.9 | 0.00 | 0.07 | 0.00 | ||
| 20260502181119 | 69 | 316 | 3.5 | 0.9 | 0.00 | 0.07 | 0.00 | ||
| 20260502180617 | 68 | 354 | 3.5 | 3.5 | 0.00 | 0.07 | 0.00 | ||
| 20260502180117 | 67 | 28 | 7.0 | 6.1 | 0.00 | 0.07 | 0.00 | ||
| 20260502170111 | 70 | 287 | 0.9 | 0.0 | 0.00 | 0.07 | 0.00 | ||
| 20260502164110 | 67 | 32 | 2.6 | 4.3 | 0.00 | 0.07 | 0.00 | ||
| 20260502163608 | 67 | 323 | 7.0 | 6.1 | 0.00 | 0.07 | 0.00 | ||
| 20260502163108 | 67 | 18 | 2.6 | 1.7 | 0.00 | 0.07 | 0.00 | ||
| 20260502162609 | 67 | 301 | 5.2 | 2.6 | 0.00 | 0.07 | 0.00 | ||
| 20260502162106 | 65 | 322 | 0.9 | 1.7 | 0.00 | 0.07 | 0.00 | ||
| 20260502161607 | 66 | 353 | 6.1 | 5.2 | 0.00 | 0.07 | 0.00 | ||
| 20260502161108 | 67 | 315 | 4.3 | 6.1 | 0.00 | 0.07 | 0.00 | ||
| 20260502160605 | 68 | 293 | 0.0 | 2.6 | 0.00 | 0.07 | 0.00 | ||
| 20260502160106 | 67 | 311 | 0.0 | 0.0 | 0.00 | 0.07 | 0.00 | ||
| 20260502152101 | 65 | 248 | 2.6 | 4.3 | 0.00 | 0.07 | 0.00 | ||
| 20260502151602 | 65 | 24 | 2.6 | 2.6 | 0.00 | 0.07 | 0.00 | ||
| 20260502151102 | 64 | 14 | 1.7 | 0.9 | 0.00 | 0.07 | 0.00 | ||
| 20260502150734 | 64 | 302 | 3.5 | 4.3 | 0.00 | 0.07 | 0.00 | ||
| 20260502150600 | 64 | 302 | 3.5 | 4.3 | 0.00 | 0.07 | 0.00 | ||
| 20260502130549 | 65 | 252 | 2.6 | 1.7 | 0.00 | 0.02 | 0.07 | ||
| 20260502123546 | 57 | 264 | 0.0 | 0.0 | 0.00 | 0.02 | 0.07 | ||
| 20260502123047 | 55 | 264 | 0.0 | 0.0 | 0.00 | 0.02 | 0.07 | ||
| 20260502122547 | 54 | 264 | 0.0 | 0.0 | 0.00 | 0.02 | 0.07 | ||
| 20260502122045 | 52 | 264 | 0.0 | 0.0 | 0.00 | 0.02 | 0.07 | ||
| 20260502121546 | 50 | 264 | 0.0 | 0.0 | 0.00 | 0.02 | 0.07 | ||
| 20260502121046 | 49 | 264 | 0.0 | 0.0 | 0.00 | 0.02 | 0.07 | ||
| 20260502120544 | 48 | 264 | 0.0 | 0.0 | 0.00 | 0.02 | 0.07 | ||
| 20260502115545 | 48 | 264 | 0.0 | 0.0 | 0.00 | 0.02 | 0.07 | ||
| 20260502115043 | 49 | 264 | 0.0 | 0.0 | 0.00 | 0.02 | 0.07 | ||
| 20260502114543 | 49 | 264 | 0.0 | 0.0 | 0.00 | 0.02 | 0.07 | ||
| 20260502114044 | 49 | 264 | 0.0 | 0.0 | 0.00 | 0.02 | 0.07 | ||
| 20260502113042 | 49 | 264 | 0.0 | 0.0 | 0.00 | 0.02 | 0.07 | ||
| 20260502112542 | 49 | 264 | 0.0 | 0.0 | 0.00 | 0.02 | 0.07 | ||
| 20260502112040 | 49 | 264 | 0.0 | 0.0 | 0.00 | 0.02 | 0.07 | ||
| 20260502111540 | 49 | 264 | 0.0 | 0.0 | 0.00 | 0.02 | 0.07 | ||
| 20260502111041 | 50 | 264 | 0.0 | 0.0 | 0.00 | 0.02 | 0.07 | ||
| 20260502110538 | 50 | 264 | 0.0 | 0.0 | 0.00 | 0.02 | 0.07 | ||
| 20260502110039 | 50 | 264 | 0.0 | 0.0 | 0.00 | 0.02 | 0.07 | ||
| 20260502105540 | 50 | 264 | 0.0 | 0.0 | 0.00 | 0.02 | 0.07 | ||
| 20260502105037 | 50 | 259 | 0.9 | 0.9 | 0.00 | 0.02 | 0.07 | ||
| 20260502104538 | 50 | 243 | 1.7 | 0.9 | 0.00 | 0.02 | 0.07 | ||
| 20260502104038 | 50 | 238 | 1.7 | 0.9 | 0.00 | 0.02 | 0.07 | ||
| 20260502103536 | 50 | 246 | 2.6 | 2.6 | 0.00 | 0.02 | 0.07 | ||
| 20260502103036 | 50 | 253 | 1.7 | 1.7 | 0.00 | 0.02 | 0.07 | ||
| 20260502102537 | 50 | 248 | 2.6 | 2.6 | 0.00 | 0.02 | 0.07 | ||
| 20260502102035 | 50 | 243 | 2.6 | 3.5 | 0.00 | 0.02 | 0.07 | ||
| 20260502101535 | 50 | 249 | 2.6 | 2.6 | 0.00 | 0.02 | 0.07 | ||
| 20260502101036 | 50 | 252 | 2.6 | 3.5 | 0.00 | 0.02 | 0.07 | ||
| 20260502100533 | 50 | 260 | 1.7 | 1.7 | 0.00 | 0.02 | 0.07 | ||
| 20260502100308 | 49 | 293 | 0.0 | 0.0 | 0.00 | 0.02 | 0.07 | ||
| 20260502091530 | 51 | 335 | 2.6 | 1.7 | 0.00 | 0.02 | 0.07 | ||
| 20260502091030 | 51 | 321 | 0.0 | 0.0 | 0.00 | 0.02 | 0.07 | ||
| 20260502090528 | 51 | 338 | 0.0 | 0.0 | 0.00 | 0.02 | 0.07 | ||
| 20260502071520 | 51 | 278 | 2.6 | 2.6 | 0.00 | 0.02 | 0.07 | ||
| 20260502071020 | 51 | 304 | 3.5 | 3.5 | 0.00 | 0.02 | 0.07 | ||
| 20260502070518 | 51 | 302 | 3.5 | 3.5 | 0.00 | 0.02 | 0.07 | ||
| 20260502070018 | 51 | 290 | 2.6 | 1.7 | 0.00 | 0.02 | 0.07 | ||
| 20260502065519 | 50 | 277 | 1.7 | 2.6 | 0.00 | 0.02 | 0.07 | ||
| 20260502065016 | 50 | 283 | 2.6 | 2.6 | 0.00 | 0.02 | 0.07 | ||
| 20260502064517 | 50 | 260 | 0.0 | 0.0 | 0.00 | 0.02 | 0.07 | ||
| 20260502064017 | 50 | 260 | 0.0 | 0.0 | 0.00 | 0.02 | 0.07 | ||
| 20260502063515 | 50 | 260 | 0.0 | 0.0 | 0.00 | 0.02 | 0.07 | ||
| 20260502063015 | 50 | 260 | 0.0 | 0.0 | 0.00 | 0.02 | 0.07 | ||
| 20260502062516 | 50 | 260 | 0.0 | 0.0 | 0.00 | 0.02 | 0.07 | ||
| 20260502062013 | 49 | 260 | 0.0 | 0.0 | 0.00 | 0.02 | 0.07 | ||
| 20260502061514 | 49 | 219 | 0.0 | 0.0 | 0.00 | 0.02 | 0.07 | ||
| 20260502061014 | 49 | 270 | 0.9 | 0.0 | 0.00 | 0.02 | 0.07 | ||
| 20260502060512 | 49 | 253 | 0.0 | 0.0 | 0.00 | 0.02 | 0.07 | ||
| 20260502060012 | 49 | 253 | 0.0 | 0.0 | 0.00 | 0.02 | 0.07 | ||
| 20260502055513 | 49 | 253 | 0.0 | 0.0 | 0.00 | 0.02 | 0.07 | ||
| 20260502055010 | 48 | 253 | 0.0 | 0.0 | 0.00 | 0.02 | 0.07 | ||
| 20260502054511 | 48 | 253 | 0.0 | 0.0 | 0.00 | 0.02 | 0.07 | ||
| 20260502054011 | 48 | 253 | 0.0 | 0.0 | 0.00 | 0.02 | 0.07 | ||
| 20260502053509 | 48 | 253 | 0.0 | 0.0 | 0.00 | 0.02 | 0.07 | ||
| 20260502053009 | 48 | 253 | 0.0 | 0.0 | 0.00 | 0.02 | 0.07 | ||
| 20260502052509 | 48 | 253 | 0.0 | 0.0 | 0.00 | 0.02 | 0.07 | ||
| 20260502052007 | 49 | 253 | 0.0 | 0.0 | 0.00 | 0.02 | 0.07 | ||
| 20260502051508 | 49 | 253 | 0.0 | 0.0 | 0.00 | 0.02 | 0.07 | ||
| 20260502051008 | 48 | 253 | 0.0 | 0.0 | 0.00 | 0.02 | 0.07 | ||
| 20260502050506 | 48 | 253 | 0.0 | 0.0 | 0.00 | 0.02 | 0.07 | ||
| 20260502050006 | 49 | 253 | 0.0 | 0.0 | 0.00 | 0.02 | 0.07 | ||
| 20260502045507 | 49 | 253 | 0.0 | 0.0 | 0.00 | 0.02 | 0.07 | ||
| 20260502045005 | 49 | 253 | 0.9 | 0.9 | 0.00 | 0.02 | 0.07 | ||
| 20260502044505 | 49 | 197 | 0.0 | 0.0 | 0.00 | 0.02 | 0.07 | ||
| 20260502044006 | 49 | 197 | 0.0 | 0.0 | 0.00 | 0.02 | 0.07 | ||
| 20260502043504 | 49 | 197 | 0.0 | 0.0 | 0.00 | 0.02 | 0.07 | ||
| 20260502043004 | 50 | 250 | 1.7 | 1.7 | 0.00 | 0.02 | 0.07 | ||
| 20260502042002 | 50 | 242 | 1.7 | 1.7 | 0.00 | 0.02 | 0.07 | ||
| 20260502041503 | 50 | 356 | 0.0 | 0.0 | 0.00 | 0.02 | 0.07 | ||
| 20260502041003 | 50 | 356 | 0.0 | 0.0 | 0.00 | 0.02 | 0.07 | ||
| 20260502040501 | 51 | 356 | 0.0 | 0.0 | 0.00 | 0.02 | 0.07 | ||
| 20260502040002 | 51 | 356 | 0.0 | 0.0 | 0.00 | 0.02 | 0.07 | ||
| 20260502035502 | 51 | 356 | 0.0 | 0.0 | 0.00 | 0.02 | 0.07 | ||
| 20260502035000 | 51 | 356 | 0.0 | 0.0 | 0.00 | 0.02 | 0.07 | ||
| 20260502034500 | 51 | 356 | 0.9 | 0.0 | 0.00 | 0.02 | 0.07 | ||
| 20260502034001 | 51 | 345 | 0.0 | 0.0 | 0.00 | 0.02 | 0.07 | ||
| 20260502033458 | 52 | 345 | 0.0 | 0.0 | 0.00 | 0.02 | 0.07 | ||
| 20260502032959 | 52 | 345 | 0.9 | 0.9 | 0.00 | 0.02 | 0.07 | ||
| 20260502032459 | 53 | 13 | 1.7 | 1.7 | 0.00 | 0.02 | 0.07 | ||
| 20260502031957 | 53 | 24 | 3.5 | 2.6 | 0.00 | 0.02 | 0.07 | ||
| 20260502031457 | 53 | 25 | 2.6 | 2.6 | 0.00 | 0.02 | 0.07 | ||
| 20260502030958 | 54 | 20 | 2.6 | 2.6 | 0.00 | 0.02 | 0.07 | ||
| 20260502030455 | 54 | 38 | 3.5 | 5.2 | 0.00 | 0.02 | 0.07 | ||
| 20260502025956 | 54 | 39 | 3.5 | 3.5 | 0.00 | 0.02 | 0.07 | ||
| 20260502025457 | 54 | 41 | 3.5 | 3.5 | 0.00 | 0.02 | 0.07 | ||
| 20260502024954 | 54 | 27 | 3.5 | 4.3 | 0.00 | 0.02 | 0.07 | ||
| 20260502024455 | 54 | 14 | 3.5 | 3.5 | 0.00 | 0.02 | 0.07 | ||
| 20260502023955 | 54 | 24 | 2.6 | 2.6 | 0.00 | 0.02 | 0.07 | ||
| 20260502023553 | 54 | 28 | 2.6 | 2.6 | 0.00 | 0.02 | 0.07 | ||
| 20260502023453 | 54 | 21 | 2.6 | 2.6 | 0.00 | 0.02 | 0.07 | ||
| 20260502022953 | 54 | 28 | 2.6 | 2.6 | 0.00 | 0.02 | 0.07 | ||
| 20260502022454 | 54 | 27 | 3.5 | 3.5 | 0.00 | 0.02 | 0.07 | ||
| 20260502021951 | 54 | 27 | 2.6 | 2.6 | 0.00 | 0.02 | 0.07 | ||
| 20260502021452 | 54 | 28 | 4.3 | 3.5 | 0.00 | 0.02 | 0.07 | ||
| 20260502020953 | 55 | 23 | 3.5 | 2.6 | 0.00 | 0.02 | 0.07 | ||
| 20260502020450 | 54 | 25 | 2.6 | 3.5 | 0.00 | 0.02 | 0.07 | ||
| 20260502020243 | 55 | 41 | 1.7 | 1.7 | 0.00 | 0.02 | 0.07 | ||
| 20260502015951 | 55 | 41 | 1.7 | 1.7 | 0.00 | 0.02 | 0.07 | ||
| 20260502015451 | 55 | 28 | 2.6 | 3.5 | 0.00 | 0.02 | 0.07 | ||
| 20260502014949 | 55 | 28 | 2.6 | 2.6 | 0.00 | 0.02 | 0.07 | ||
| 20260502014450 | 55 | 35 | 3.5 | 2.6 | 0.00 | 0.02 | 0.07 | ||
| 20260502013950 | 55 | 46 | 3.5 | 3.5 | 0.00 | 0.02 | 0.07 | ||
| 20260502013448 | 55 | 35 | 3.5 | 2.6 | 0.00 | 0.02 | 0.07 | ||
| 20260502013356 | 56 | 32 | 3.5 | 2.6 | 0.00 | 0.02 | 0.07 | ||
| 20260502012948 | 56 | 32 | 3.5 | 2.6 | 0.00 | 0.02 | 0.07 | ||
| 20260502012449 | 56 | 28 | 4.3 | 5.2 | 0.00 | 0.02 | 0.07 | ||
| 20260502011947 | 56 | 11 | 3.5 | 5.2 | 0.00 | 0.02 | 0.07 | ||
| 20260502011447 | 55 | 48 | 5.2 | 5.2 | 0.00 | 0.02 | 0.07 | ||
| 20260502010948 | 56 | 34 | 4.3 | 6.1 | 0.00 | 0.02 | 0.07 | ||
| 20260502010445 | 56 | 38 | 5.2 | 7.8 | 0.00 | 0.02 | 0.07 | ||
| 20260502005946 | 56 | 41 | 7.0 | 6.1 | 0.00 | 0.02 | 0.07 | ||
| 20260502005447 | 56 | 37 | 8.7 | 5.2 | 0.00 | 0.02 | 0.07 |